[[{"header":{"parameterUnit":"m.s-1","parameterCategory":1,"la1":30.2991,"la2":30.254,"lo1":-89.0895,"lo2":-89.0444,"dy":0.0017,"dx":0.0017,"nx":28,"ny":28,"refTime":"2025-03-23T09:00:00:Z","depth":0,"parameterNumber":2,"parameterNumberName":"U-component_of_WINDS"},"data":[0,0,0,0,0,0,0,0,0,0,0,0,0,0,0,0,0,0,0,0,0,0,0,0,0,0,0,0,0,0,0,0,0,0,0,0,0,0,0,0,0,0,0,0,0,0,0,0,0,0,0,0,0,0,0,0,0,0,1.2854,1.2854,0,1.2805,1.2805,1.2804,1.2807,1.2808,1.2809,1.2809,1.2758,1.2757,1.2754,0,0,0,0,0,0,0,0,0,0,0,0,0,1.2953,1.2951,1.2854,1.2854,1.2853,1.2805,1.2805,1.2804,1.2807,1.2808,1.2809,1.281,1.2759,1.2757,1.2754,0,0,0,0,0,0,0,0,0,0,0,0,0,1.2908,1.2951,1.2855,1.2849,1.2848,1.2805,1.2805,1.2804,1.2807,1.2808,1.2809,1.281,1.276,1.2757,1.2754,1.2713,0,0,1.2745,1.2743,0,0,0,0,0,0,0,0,1.291,1.2904,1.2851,1.2849,1.2848,1.2814,1.2821,1.2773,1.2807,1.2823,1.2809,1.2811,1.2776,1.2772,1.276,1.2711,1.2709,1.2744,1.2743,1.2741,1.274,0,0,0,0,0,0,0,1.2913,1.2906,1.2835,1.285,1.2848,1.285,1.2844,1.2812,1.2794,1.2821,1.2821,1.2816,1.2775,1.2763,1.2759,1.2708,1.2744,1.2742,1.274,1.2739,1.2626,1.2625,0,0,0,0,0,0,1.2918,1.2909,1.2836,1.2833,1.2883,1.2847,1.2841,1.2824,1.2794,1.2791,1.2815,1.2816,1.2768,1.2762,1.2757,1.2709,1.2741,1.2738,1.2737,1.2628,1.2626,1.2625,0,0,0,0,0,0,1.292,1.2911,1.2838,1.2871,1.2862,1.2844,1.2824,1.2822,1.2809,1.2789,1.2786,1.2805,1.2768,1.2761,1.2725,1.2708,1.2737,1.2734,1.2629,1.2627,1.2626,1.2613,0,0,0,0,0,0,1.2923,1.2912,1.2896,1.2871,1.286,1.2806,1.2823,1.282,1.2804,1.2805,1.2779,1.2776,1.2769,1.2729,1.2722,1.2704,1.2732,1.263,1.2628,1.2626,1.2614,1.2611,1.2607,0,0,0,0,0,1.2926,1.2893,1.2895,1.2886,1.2839,1.2805,1.2799,1.2792,1.2803,1.2787,1.2774,1.2777,1.2711,1.2726,1.2717,1.2698,1.2631,1.2629,1.2626,1.2616,1.2611,1.2607,0,0,0,0,0,0,1.2915,1.289,1.2891,1.2849,1.283,1.2806,1.2785,1.2787,1.2763,1.2765,1.2757,1.2751,1.2715,1.2703,1.272,1.2659,1.2673,1.2668,1.2668,1.2663,1.266,1.2663,1.2729,0,0,0,0,0,1.2908,1.2882,1.2861,1.2826,1.2817,1.2803,1.2788,1.2784,1.2763,1.2755,1.2739,1.2719,1.2695,1.2678,1.2654,1.2613,1.2608,1.2596,1.2592,1.259,1.2586,1.2566,1.2561,1.2616,1.2616,1.2617,0,0,1.2892,1.2876,1.2859,1.2824,1.2808,1.2783,1.2796,1.2767,1.2749,1.275,1.2716,1.2704,1.2681,1.2643,1.2626,1.2632,1.257,1.2586,1.2584,1.2582,1.2563,1.2558,1.2553,1.2615,1.2615,1.2615,0,0,1.2852,1.2835,1.2806,1.2791,1.2768,1.2759,1.2752,1.2729,1.2722,1.2687,1.2689,1.2667,1.2623,1.2608,1.2594,1.2551,1.2554,1.2544,1.2525,1.2506,1.2501,1.2497,1.2484,1.2479,1.254,1.254,1.254,0,1.2835,1.2797,1.279,1.2763,1.2748,1.275,1.272,1.2706,1.2676,1.2666,1.2674,1.2621,1.2606,1.2566,1.2556,1.2544,1.2537,1.2546,1.2503,1.2499,1.2495,1.2482,1.2476,1.2539,1.2539,1.2539,1.2539,0,1.2779,1.2752,1.2731,1.2704,1.2686,1.2658,1.2648,1.2632,1.263,1.2621,1.2588,1.257,1.2543,1.2533,1.2531,1.2493,1.2498,1.2504,1.2518,1.2489,1.2476,1.2471,1.2538,1.2538,1.2538,1.2539,0,0,1.2727,1.2699,1.2691,1.268,1.2656,1.2636,1.2609,1.2584,1.2571,1.2551,1.2529,1.2494,1.25,1.2485,1.2481,1.2464,1.2434,1.2472,1.2472,1.2467,1.2394,1.239,1.2384,1.2435,1.2434,1.2434,1.2396,0,1.2685,1.2637,1.2632,1.2589,1.2566,1.2569,1.2546,1.2529,1.2521,1.25,1.2491,1.2467,1.2477,1.2468,1.2451,1.2441,1.2419,1.2443,1.2416,1.2415,1.2422,1.2377,1.2372,1.2338,1.2391,1.239,1.239,0,1.2628,1.2609,1.2564,1.2546,1.2536,1.2515,1.2494,1.2474,1.2456,1.2452,1.2436,1.2435,1.2409,1.2424,1.2389,1.2405,1.2394,1.2388,1.2386,1.2383,1.2401,1.2375,1.2327,1.2322,1.2382,1.2382,1.2383,0,1.2597,1.2559,1.2529,1.2519,1.2497,1.2483,1.2473,1.2456,1.2443,1.2424,1.2415,1.2393,1.2381,1.2365,1.2359,1.237,1.2324,1.2338,1.232,1.2321,1.231,1.2311,1.2261,1.2302,1.2302,1.2302,1.2302,0,1.2551,1.2524,1.2515,1.2496,1.2467,1.2462,1.2433,1.2424,1.241,1.239,1.2391,1.2373,1.2366,1.2346,1.2342,1.2314,1.2308,1.2305,1.2304,1.2305,1.2305,1.2297,1.23,1.2301,1.2301,1.2301,1.2301,0,1.2511,1.2504,1.2471,1.2454,1.2449,1.2428,1.2414,1.2397,1.239,1.2365,1.2359,1.2348,1.2326,1.2319,1.2291,1.2288,1.2256,1.2257,1.2262,1.2262,1.2246,1.2248,1.2189,1.2182,1.2227,1.2226,1.2226,0,1.2482,1.2461,1.2443,1.2431,1.2421,1.24,1.2387,1.2382,1.2368,1.2349,1.2334,1.2312,1.2294,1.2259,1.2249,1.2229,1.223,1.221,1.2226,1.2229,1.2231,1.2233,1.2231,1.2207,1.2207,1.2207,1.2206,0,1.2432,1.243,1.2411,1.2391,1.2376,1.236,1.2345,1.2334,1.2328,1.2313,1.2291,1.2277,1.225,1.2229,1.2209,1.22,1.2203,1.2202,1.2197,1.2198,1.2202,1.2201,1.2255,1.2203,1.2203,1.2203,1.2203,1.2204,1.2397,1.238,1.2366,1.2345,1.2334,1.232,1.2304,1.2296,1.2278,1.2256,1.2255,1.2232,1.2217,1.2191,1.2181,1.2163,1.2169,1.2161,1.2159,1.2158,1.2157,1.2205,1.2159,1.2159,1.2159,1.2159,1.216,0,1.2348,1.234,1.2321,1.2301,1.2286,1.229,1.2274,1.2261,1.2241,1.2227,1.2211,1.2187,1.2167,1.2157,1.2138,1.2126,1.2126,1.2121,1.2122,1.212,1.2152,1.2159,1.2121,1.2121,1.2121,1.2121,1.2121,1.2121,1.2321,1.2294,1.2291,1.2259,1.225,1.2228,1.2219,1.2207,1.2197,1.217,1.2154,1.2148,1.2137,1.2117,1.21,1.2098,1.2091,1.2085,1.2083,1.2113,1.2117,1.2121,1.2128,1.2083,1.2083,1.2053,1.2052,1.2052]},{"header":{"parameterUnit":"m.s-1","parameterCategory":1,"la1":30.2991,"la2":30.254,"lo1":-89.0895,"lo2":-89.0444,"dy":0.0017,"dx":0.0017,"nx":28,"ny":28,"refTime":"2025-03-23T09:00:00:Z","depth":0,"parameterNumber":3,"parameterNumberName":"V-component_of_WINDS"},"data":[0,0,0,0,0,0,0,0,0,0,0,0,0,0,0,0,0,0,0,0,0,0,0,0,0,0,0,0,0,0,0,0,0,0,0,0,0,0,0,0,0,0,0,0,0,0,0,0,0,0,0,0,0,0,0,0,0,0,2.4332,2.4333,0,2.4389,2.439,2.4391,2.4394,2.4393,2.4392,2.4392,2.4448,2.445,2.4452,0,0,0,0,0,0,0,0,0,0,0,0,0,2.4222,2.4224,2.4332,2.4333,2.4334,2.4389,2.439,2.4391,2.4394,2.4393,2.4392,2.4391,2.4447,2.4449,2.4452,0,0,0,0,0,0,0,0,0,0,0,0,0,2.4274,2.4225,2.4332,2.4342,2.4343,2.4389,2.439,2.4391,2.4394,2.4393,2.4392,2.4391,2.4446,2.4449,2.4452,2.4492,0,0,2.4462,2.4463,0,0,0,0,0,0,0,0,2.4271,2.4278,2.434,2.4341,2.4343,2.4383,2.4372,2.4425,2.4394,2.4375,2.4392,2.4391,2.4427,2.4432,2.4444,2.4494,2.4497,2.4462,2.4464,2.4465,2.4466,0,0,0,0,0,0,0,2.4267,2.4275,2.4355,2.4341,2.4343,2.4342,2.4349,2.4382,2.4405,2.4376,2.4377,2.4383,2.4428,2.4441,2.4446,2.4497,2.4462,2.4465,2.4467,2.4468,2.4581,2.4582,0,0,0,0,0,0,2.4262,2.4272,2.4353,2.4357,2.4304,2.4345,2.4352,2.4371,2.4405,2.4409,2.4384,2.4383,2.4436,2.4442,2.4448,2.4496,2.4465,2.4468,2.447,2.458,2.4582,2.4583,0,0,0,0,0,0,2.426,2.4269,2.4351,2.4315,2.4325,2.4348,2.437,2.4373,2.4387,2.4411,2.4415,2.4394,2.4436,2.4443,2.4481,2.4498,2.447,2.4473,2.4579,2.4581,2.4582,2.4592,0,0,0,0,0,0,2.4257,2.4268,2.4284,2.4315,2.4327,2.4384,2.4371,2.4375,2.4393,2.4392,2.4422,2.4426,2.4436,2.4476,2.4484,2.4502,2.4475,2.4578,2.458,2.4582,2.459,2.4594,2.4597,0,0,0,0,0,2.4253,2.4284,2.4285,2.4295,2.4347,2.4385,2.4391,2.4403,2.4394,2.441,2.4425,2.4425,2.4494,2.448,2.4489,2.4508,2.4577,2.4579,2.4582,2.4589,2.4593,2.4597,0,0,0,0,0,0,2.4255,2.4289,2.429,2.4333,2.4356,2.4385,2.4405,2.4407,2.4433,2.4431,2.4444,2.445,2.4487,2.4501,2.4484,2.4547,2.4534,2.4539,2.4537,2.4541,2.4544,2.454,2.4478,0,0,0,0,0,2.426,2.4289,2.4316,2.4351,2.4363,2.4382,2.4399,2.4406,2.443,2.444,2.4458,2.448,2.4507,2.4525,2.4551,2.4592,2.4598,2.4609,2.4613,2.4615,2.4619,2.4641,2.4646,2.4591,2.4591,2.4591,0,0,2.4272,2.4294,2.4311,2.4352,2.4371,2.4399,2.439,2.4421,2.4441,2.4444,2.4481,2.4495,2.4521,2.456,2.4578,2.4572,2.4636,2.4618,2.462,2.4623,2.4644,2.465,2.4654,2.4593,2.4592,2.4592,0,0,2.4307,2.4327,2.4358,2.4377,2.4406,2.4419,2.4426,2.4455,2.4465,2.4502,2.4504,2.4528,2.4575,2.4593,2.4608,2.465,2.465,2.4658,2.4675,2.4697,2.4701,2.4705,2.472,2.4725,2.4661,2.4662,2.4662,0,2.4317,2.4361,2.4374,2.4404,2.4422,2.4426,2.4457,2.4475,2.451,2.4522,2.4515,2.4573,2.4591,2.4635,2.4645,2.4657,2.4665,2.4655,2.47,2.4704,2.4708,2.4722,2.4727,2.4662,2.4662,2.4662,2.4662,0,2.4372,2.4402,2.4424,2.4459,2.4479,2.451,2.4526,2.4545,2.455,2.4563,2.46,2.4621,2.4652,2.4662,2.4667,2.4706,2.4702,2.4697,2.4685,2.4713,2.4727,2.4733,2.4663,2.4663,2.4663,2.4663,0,0,2.4411,2.4453,2.446,2.4476,2.4508,2.4531,2.4561,2.4592,2.4608,2.4631,2.4657,2.4695,2.4691,2.4709,2.4715,2.4734,2.4766,2.4727,2.4728,2.4734,2.481,2.4813,2.482,2.4766,2.4767,2.4768,2.4808,0,2.445,2.4506,2.4517,2.4565,2.4592,2.4596,2.4622,2.4644,2.4656,2.4681,2.4694,2.4721,2.4714,2.4724,2.4743,2.4758,2.4781,2.4755,2.4789,2.479,2.4783,2.4827,2.4831,2.4868,2.4813,2.4814,2.4815,0,2.4503,2.4529,2.458,2.4608,2.462,2.4643,2.4672,2.4695,2.472,2.4727,2.4747,2.4751,2.4782,2.4768,2.4809,2.4791,2.4806,2.4815,2.4816,2.482,2.4804,2.4832,2.488,2.4885,2.4823,2.4822,2.4822,0,2.4527,2.4574,2.461,2.4624,2.4657,2.4674,2.4688,2.4711,2.4729,2.4754,2.4765,2.4792,2.4807,2.4828,2.484,2.4828,2.488,2.4867,2.4887,2.4887,2.4898,2.4898,2.4949,2.4907,2.4907,2.4907,2.4907,0,2.4569,2.46,2.4621,2.4644,2.4678,2.469,2.4723,2.4737,2.4758,2.4782,2.4787,2.4809,2.4823,2.4847,2.4856,2.4889,2.4896,2.4902,2.4905,2.4903,2.4902,2.4912,2.491,2.4908,2.4908,2.4908,2.4907,0,2.4601,2.4617,2.4657,2.4685,2.4693,2.4717,2.4741,2.4762,2.4774,2.4805,2.4813,2.4832,2.4861,2.4874,2.4909,2.4915,2.4953,2.4953,2.4945,2.4946,2.4965,2.4963,2.5026,2.5035,2.4986,2.4986,2.4987,0,2.4627,2.4651,2.4682,2.4699,2.4715,2.4742,2.476,2.4773,2.4791,2.482,2.4838,2.4867,2.4891,2.4936,2.4953,2.4979,2.498,2.5,2.4984,2.4982,2.4981,2.498,2.4982,2.5003,2.5004,2.5004,2.5005,0,2.4672,2.4679,2.4705,2.4735,2.4756,2.478,2.4802,2.4816,2.4832,2.4852,2.4882,2.4901,2.4937,2.4966,2.4993,2.5007,2.5009,2.5009,2.5016,2.5014,2.5009,2.5012,2.4953,2.5008,2.5008,2.5007,2.5007,2.5007,2.4702,2.4724,2.4749,2.4778,2.4797,2.4818,2.4839,2.4855,2.488,2.4912,2.4917,2.4949,2.4971,2.5009,2.5024,2.5048,2.5043,2.5052,2.5054,2.5056,2.5058,2.5004,2.5053,2.5053,2.5053,2.5053,2.5053,0,2.4748,2.4764,2.4791,2.4823,2.4846,2.4846,2.4871,2.489,2.4918,2.494,2.4963,2.4997,2.5025,2.5043,2.5071,2.5087,2.5088,2.5094,2.5093,2.5096,2.506,2.5052,2.5092,2.5092,2.5092,2.5092,2.5092,2.5092,2.4774,2.481,2.482,2.4865,2.488,2.4913,2.4927,2.4946,2.4963,2.5002,2.5025,2.5037,2.5057,2.5086,2.5111,2.5116,2.5126,2.5132,2.5136,2.5103,2.5098,2.5095,2.5087,2.5134,2.5134,2.517,2.5171,2.5171]}]]